Погода в Ляхах

Россия / Владимирская область     55°19′55″N   41°55′31″E
темп.,
°C
ветер,
м/с
пор.,
м/с
влажн.,
%
обл.,
%
осадки,
мм/ч
давл.,
гПа
погр.,
м
5 августа, чт
чт500:00+15ссз346179 0.0 101658
03:00+14с236699 0.0 101748
06:00+15св126788 0.0 101877
09:00+21всв23500 0.0 1017547
12:00+25юв123853 0.0 10172081
15:00+26в023584 0.0 10162155
18:00+23в365250 0.0 1016212
21:00+19юв395489 0.0 1015218
6 августа, пт
пт600:00+19юв41155100 0.0 1015330
03:00+17юв41064100 0.0 1014243
06:00+16юв4985100 0.5 1015205
09:00+17ю3885100 0.8 1015325
12:00+20юв3776100 0.5 1015402
15:00+21юв3569100 0.5 1014162
18:00+20св3671100 0.0 1012154
21:00+19всв3873100 0.0 1011185
7 августа, сб
сб700:00+20вюв246679 0.0 101187
03:00+20ю495947 0.1 1011224
06:00+19ююв4126468 0.1 1012335
09:00+22ю410509 0.1 1012464
12:00+23ю494743 0.0 1013396
15:00+31ю372863 0.0 10112061
18:00+27вюв374499 0.0 1011186
21:00+25ююв51444100 0.0 1012410
8 августа, вс
вс800:00+22ююв4124999 0.0 1012256
03:00+19ююв3105794 0.0 1013186
06:00+20ююв395317 0.0 1013236
09:00+26ююв463995 0.0 1013388
12:00+31ю4628100 0.0 10131188
15:00+31зюз4531100 0.0 10141497
18:00+24зюз3661100 0.0 1015146
21:00+22з1176100 0.0 101613
9 августа, пн
пн900:00+19сз2292100 1.5 101745
03:00+19с2393100 1.6 101848
06:00+19с2288100 0.0 101868
09:00+23ссз2264100 0.0 1018440
12:00+27сз1148100 0.0 10181074
15:00+28зсз1343100 0.0 10181573
18:00+27сз1253100 0.0 101797
21:00+21юз3674100 0.1 1018144